Volver al catálogo

STARLINK-30103

ActivoComunicacionesVLEO
NORAD 56290·PAYLOAD·🇺🇸 United States

Lanzado Apr 19, 2023 desde Cape Canaveral Space Force Station

Loading…

Próximos Pases (próximas 24 horas)

TLE

ActualizadoSource: CelesTrak SupGP

Época: Sep 15, 2026, 02:20 UTC

1 56290C 23056E   26258.09770833 -.00013547  00000+0 -49038-3 0  2584
2 56290  43.0030 219.2768 0001006 265.0866 221.3183 15.27604374    19

Sigue STARLINK-30103 en tiempo real con AllMySat

Download on the App Store